FW6550 Weather Reports


time (UTC)temp
C
wind
direction
speed
KPH
gust
KPH
rain 1hr
cm
rain 24hr
cm
rain mn
cm
humidity
%
barometer
mb
20260504034536 12 0 0.0 0.0 0.00 0.00 0.00 77 1018.9
20260504033037 12 0 0.0 0.0 0.00 0.00 0.00 76 1019.0
20260504031538 13 0 0.0 0.0 0.00 0.00 0.00 74 1018.9
20260504030034 13 0 0.0 0.0 0.00 0.00 0.00 74 1018.9
20260504024535 13 0 0.0 0.0 0.00 0.00 0.00 69 1019.0
20260504023033 14 0 0.0 0.0 0.00 0.00 0.00 67 1018.7
20260504021532 14 0 0.0 0.0 0.00 0.00 0.00 67 1018.7
20260504020032 15 0 0.0 0.0 0.00 0.00 0.00 65 1018.7
20260504014532 15 0 0.0 0.0 0.00 0.00 0.00 61 1018.5
20260504013035 16 0 0.0 0.0 0.00 0.00 0.00 58 1018.3
20260504011534 17 0 0.0 0.0 0.00 0.00 0.00 58 1018.2
20260504010032 17 0 0.0 0.0 0.00 0.00 0.00 55 1018.2
20260504004539 18 0 0.0 0.0 0.00 0.00 0.00 53 1018.3
20260504003039 20 0 0.0 0.0 0.00 0.00 0.00 50 1018.1
20260504001538 20 0 0.0 0.0 0.00 0.00 0.00 45 1018.3
20260504000052 21 0 0.0 3.2 0.00 0.00 0.00 41 1018.1
20260503234544 21 341 0.0 4.8 0.00 0.00 0.00 40 1018.0
20260503233033 21 0 0.0 6.4 0.00 0.00 0.00 38 1018.2
20260503231532 22 15 0.0 6.4 0.00 0.00 0.00 39 1018.1
20260503230032 22 69 0.0 6.4 0.00 0.00 0.00 37 1018.0
20260503224530 22 0 1.6 6.4 0.00 0.00 0.00 38 1018.2
20260503223037 22 308 1.6 8.0 0.00 0.00 0.00 38 1018.2
20260503221546 22 296 0.0 9.7 0.00 0.00 0.00 40 1018.1
20260503220034 22 360 1.6 12.9 0.00 0.00 0.00 40 1018.4
20260503214533 22 298 3.2 14.5 0.00 0.00 0.00 36 1018.4
20260503213032 22 292 3.2 12.9 0.00 0.00 0.00 39 1018.5
20260503211533 22 0 4.8 14.5 0.00 0.00 0.00 37 1018.7
20260503210030 22 312 3.2 14.5 0.00 0.00 0.00 39 1019.1
20260503204529 22 276 3.2 8.0 0.00 0.00 0.00 41 1019.3
20260503203041 22 37 3.2 11.3 0.00 0.00 0.00 40 1019.4
20260503201536 22 333 0.0 11.3 0.00 0.00 0.00 38 1019.7
20260503200035 22 262 4.8 16.1 0.00 0.00 0.00 40 1020.0
20260503194534 23 360 4.8 14.5 0.00 0.00 0.00 40 1020.3
20260503193033 22 348 1.6 8.0 0.00 0.00 0.00 38 1020.4
20260503191530 23 22 3.2 17.7 0.00 0.00 0.00 39 1020.8
20260503190038 22 323 3.2 16.1 0.00 0.00 0.00 37 1021.1
20260503184533 22 11 3.2 12.9 0.00 0.00 0.00 41 1021.3
20260503183033 22 314 3.2 9.7 0.00 0.00 0.00 46 1021.5
20260503181537 22 329 3.2 16.1 0.00 0.00 0.00 42 1021.8
20260503180040 21 0 3.2 14.5 0.00 0.00 0.00 43 1021.9
20260503174534 22 322 3.2 9.7 0.00 0.00 0.00 41 1022.1
20260503173050 22 34 4.8 14.5 0.00 0.00 0.00 43 1022.4
20260503171537 22 278 3.2 11.3 0.00 0.00 0.00 46 1022.5
20260503081535 11 0 0.0 1.6 0.00 0.00 0.00 73 1020.2
20260503071531 11 28 0.0 8.0 0.00 0.03 0.00 70 1019.9
20260503054536 9 0 0.0 0.0 0.00 0.03 0.00 81 1019.5
20260503053039 9 0 0.0 0.0 0.00 0.03 0.00 80 1019.4
20260503051531 10 0 0.0 0.0 0.00 0.03 0.00 81 1019.3
20260503050035 10 0 0.0 0.0 0.00 0.03 0.00 80 1019.1
20260503044534 10 0 0.0 0.0 0.00 0.03 0.03 79 1018.9
20260503043032 10 0 0.0 0.0 0.00 0.03 0.03 78 1018.9
20260503041533 10 0 0.0 0.0 0.00 0.03 0.03 77 1018.7
20260503040037 11 0 0.0 0.0 0.00 0.03 0.03 76 1018.6